Regional Weather Roundup
Issued by NWS

Home | Current Version | Previous Version | Text Only | Print | Product List | Glossary Off
Versions: 1 2 3 4 5 6 7 8 9 10 11 12 13 14 15 16 17 18 19 20 21 22 23 24 25 26 27 28 29 30 31 32 33 34 35 36 37 38 39 40 41 42 43 44 45 46 47 48 49 50

000
ASUS45 KTFX 240110
RWRMT
MONTANA REGIONAL WEATHER ROUNDUP
NATIONAL WEATHER SERVICE GREAT FALLS MT
700 PM MDT SUN APR 23 2017

NOTE: "FAIR" INDICATES FEW OR NO CLOUDS BELOW 12000 FEET WITH NO
SIGNIFICANT WEATHER AND/OR OBSTRUCTIONS TO VISIBILITY.

MTZ001>007-043-240200-
WEST OF THE DIVIDE

CITY           SKY/WX    TMP DP  RH WIND       PRES   REMARKS
KALISPELL      PTSUNNY   51  42  71 S9        29.72S
MISSOULA         N/A     55  35  47 NW9       29.74F
BUTTE          CLOUDY    49  29  46 W6        29.75S
MULLAN PASS    CLOUDY    35  30  82 VRB7      29.78F WCI  29
ANACONDA         N/A     52  32  46 CALM      29.75R
DEER LODGE       N/A     48  34  57 NW14      29.77R
EUREKA           N/A     54  32  43 CALM      29.73F
HAMILTON         N/A     54  32  43 NW5       29.75F
LIBBY            N/A     45  41  87 E5        29.75R
PLAINS           N/A     54  37  52 CALM      29.80
$$

MTZ008-052>055-240200-
SOUTHWEST MONTANA

CITY           SKY/WX    TMP DP  RH WIND       PRES   REMARKS
BOZEMAN        CLOUDY    47  40  76 S7        29.74F
DILLON         PTSUNNY   49  34  56 SW16      29.73F
W YELLOWSTONE  SNOW      32  32 100 SW5       29.82R VSB 1/2
ENNIS          MOSUNNY   45  39  81 S13       29.81S
THREE FORKS      N/A     51  -3  11 CALM      29.76S
TWIN BRIDGES     N/A     49  36  61 E7        29.78
$$

MTZ009-010-012-014-046-048-049-054-240200-
EAST SLOPES AND CENTRAL MONTANA

CITY           SKY/WX    TMP DP  RH WIND       PRES   REMARKS
CUT BANK         N/A     48  41  76 SE7       29.67F
GREAT FALLS    MOSUNNY   51  40  65 S7        29.69F
MALMSTROM AFB  CLOUDY    52  40  64 SW6       29.69F
HELENA         MOSUNNY   57  33  40 W13       29.71F
AUGUSTA        PTSUNNY   52  31  44 NW8       29.68S
BOWMANS CRNR     N/A     49  39  67 S12       29.67S
CHOTEAU          N/A     54  32  43 W17G25    29.70S
FAIRFIELD      PTSUNNY   53  38  56 E5        29.66F
POWER            N/A     51  36  56 CALM      29.67F
RAYNESFORD     PTSUNNY   49  42  75 W5        29.71S
ULM              N/A     52  40  65 SW3       29.69F
$$

MTZ011-013-016-021-045-047-050-051-240200-
NORTH CENTRAL MONTANA

CITY           SKY/WX    TMP DP  RH WIND       PRES   REMARKS
HAVRE          CLOUDY    44  42  93 E15       29.71S
LEWISTOWN      RAIN      45  43  93 W7        29.71R FOG
N BAR RANCH    LGT RAIN  45  43  93 N7        29.73S
CHINOOK          N/A     43  39  87 E7        29.72S
DENTON         LGT RAIN  47  44  89 NE6       29.67R
FORT BENTON      N/A     54  43  66 MISG      29.70F
GEYSER         PTSUNNY   47  42  82 W9        29.70S
GRASS RANGE    HVY RAIN  45  43  94 E10       29.67S
JUDITH GAP     LGT RAIN  43  38  84 E12       29.68F
STANFORD       HVY RAIN  42  41  95 W5        29.71R
WINIFRED       PTSUNNY   46  42  86 E6        29.69S
$$

MTZ017>020-022>027-061-062-240200-
NORTHEAST MONTANA

CITY           SKY/WX    TMP DP  RH WIND       PRES   REMARKS
GLASGOW        CLOUDY    38  29  70 E24G30    29.74F WCI  27
JORDAN           N/A     48  37  65 NE13      29.70R
SIDNEY         CLOUDY    33  30  88 E13       29.82F WCI  24
WOLF POINT     CLOUDY    35  30  82 E21G29    29.78F WCI  24
MALTA          CLOUDY    43  36  75 E12       29.73F
PLENTYWOOD       N/A     32  28  86 E20G26    29.83F WCI  20
POPLAR           N/A     34  28  80 E16G22    29.80S WCI  23
$$

MTZ028>42-056>058-240200-
SOUTHCENTRAL AND SOUTHEAST MONTANA

CITY           SKY/WX    TMP DP  RH WIND       PRES   REMARKS
BAKER          CLOUDY    41  33  73 E21       29.71F
BILLINGS       CLOUDY    52  42  69 N26G40    29.65R
LIVINGSTON     CLOUDY    43  39  86 SW8       29.74S
MILES CITY     CLOUDY    50  37  61 NE15      29.63F
BIG TIMBER     MOSUNNY   45  39  81 SW18G31   29.74S
LAUREL           N/A     51  36  56 W22       29.70R
ROUNDUP          N/A     49  42  76 W6        29.64R
$$

REGIONAL REPORTS...DAKOTAS

CITY           SKY/WX    TMP DP  RH WIND       PRES   REMARKS
WILLISTON      CLOUDY    32  28  85 E21G26    29.86F WCI  20
MINOT          CLOUDY    31  27  85 E16G23    29.94F WCI  20
DICKINSON      CLOUDY    35  31  85 E16       29.76F WCI  25
BEACH          CLOUDY    39  36  87 SE18      29.78S WCI  30
TIOGA          CLOUDY    28  28 100 E24G30    29.88F WCI  14
WATFORD CITY   CLOUDY    30  30 100 E16G22    29.84F FOG     WCI  19
BISMARCK       CLOUDY    35  32  88 NE18      29.87S WCI  24
GRAND FORKS    CLOUDY    33  30  88 NE18G25   30.03S WCI  22
FARGO          CLEAR     38  32  79 NE20G28   29.92F WCI  28
BUFFALO SD       N/A     50  39  66 E20       29.64F
RAPID CITY     CLOUDY    64  42  44 N14       29.64F
$$

REGIONAL REPORTS...WYOMING/IDAHO/WASHINGTON

CITY           SKY/WX    TMP DP  RH WIND       PRES   REMARKS
GILLETTE       CLOUDY    65  40  39 NE9       29.58F
SHERIDAN       CLOUDY    60  45  57 W12       29.58S
BUFFALO WY     CLOUDY    64  31  28 W16       29.62S
CODY           CLOUDY    54  34  46 W9G22     29.68S
YELLOWSTONE LA   N/A     33  33 100 CALM      29.83F
IDAHO FALLS    CLOUDY    58  32  37 W15G30    29.78R
SALMON         CLOUDY    48  37  66 NW21      29.77R
BOISE            N/A     60  41  49 NE8       29.77F
SPOKANE        PTSUNNY   55  32  41 SW16      29.76F
$$

REGIONAL REPORTS...ALBERTA

CITY           SKY/WX    TMP DP  RH WIND       PRES   REMARKS
EDMONTON       CLOUDY    34  30  86 E7        29.80S WCI  28
CALGARY        LGT RAIN  43  36  75 NE16      29.70R
LETHBRIDGE     CLOUDY    50  37  62 N15G21    29.64F
WATERTON GATE    N/A     45  34  65 SW12G17     N/A
MILK RIVER       N/A     50  41  71 S14         N/A
$$

REGIONAL REPORTS...SASKATCHEWAN

CITY           SKY/WX    TMP DP  RH WIND       PRES   REMARKS
SWIFT CURRENT  LGT SNOW  32  30  93 SE14G21   29.76S WCI  22
REGINA         CLOUDY    37  16  41 E18G26    29.88F WCI  27
SASKATOON      LGT SNOW  32  32 100 E10       29.91F VSB 3/4 WCI  24
CYPRESS HILLS    N/A     34  32  93 S7          N/A  WCI  28
VAL MARIE        N/A     34  32  93 E14         N/A  WCI  24
ROCKGLEN         N/A     28  28 100 SE15G22     N/A  WCI  17
ASSINIBOIA       N/A     34  32  93 E15G22      N/A  WCI  24
$$



USA.gov is the U.S. government's official web portal to all federal, state and local government web resources and services.